sat.trackr.live / text

‹ back to catalog

ONEWEB-0626

NORAD 55167 · 2023-004AD

PAYLOAD ACTIVE UNKNOWN

§ Identity

Operator
Country
UK
Launch date
2023-01-10
Launch site
AFETR
Launch vehicle
Mass (kg)
RCS (m²)

Purposes: comms

External: N2YO · Heavens-Above · Gunter

§ Orbital elements

Epoch: 2026-09-19T23:51:27.233280Z

Period
109.29 min
Inclination
87.9202°
Eccentricity
0.0001523
Mean motion
13.17649023 rev/d
Perigee alt
1,192.6 km
Apogee alt
1,194.9 km
Semi-major
7,571.9 km
B*
3.1371e-4
RAAN
347.0478°
Arg perigee
96.4425°
Mean anomaly
263.6880°
Rev number
18,006

§ Raw data

ONEWEB-06261 55167U 23004AD  26262.99406520  .00000135  00000+0  31371-3 0  99922 55167  87.9202 347.0478 0001523  96.4425 263.6880 13.17649023180062

JSON: /api/v1/satellites/55167 · /tle

For live sub-satellite position, see the globe view (requires WebGL).

§ Visibility from observer

Set your observer location to see the next 7 days of passes ≥ 10°. The values pass through the URL so the page stays shareable.

No JS? Fill the form by hand. The geolocation button needs JavaScript.